Tracking 17138 objects as of 3-July-2015
HD Live streaming from Space Station

RIGIDSPHERE 2 (LCS 4)

Track RIGIDSPHERE 2 (LCS 4) now!
10-day predictions
RIGIDSPHERE 2 (LCS 4) is classified as:


NORAD ID: 5398
Int'l Code: 1971-067E
Perigee: 741.0 km
Apogee: 835.3 km
Inclination: 87.6 °
Period: 100.5 minutes
Semi major axis: 7159 km
RCS: 0.9311 m2 (medium)
Launch date: August 7, 1971
Source: United States (US)
Your satellite tracking list
Your tracking list is empty





NASA's NSSDC Master Catalog

Two Line Element Set (TLE):
1 05398U 71067E   15183.77762111  .00000290  00000-0  96284-4 0  9990
2 05398 087.6218 003.4390 0065842 122.3580 238.4013 14.33211387300315

Source of the keplerian elements: AFSPC

N2YO: 207